Location: Oshawa
(43.9000°N, 78.8670°W)
Time: 09:54:02
(UTC-05:00)

Cosmos 839 Rocket - Visible Passes

Search period start: 24 February 2017 00:00
Search period end: 06 March 2017 00:00
Orbit: 968 x 2085 km, 65.9° (Epoch: 22 February)

Date Brightness Start Highest point End Pass type
(mag) Time Alt. Az. Time Alt. Az. Time Alt. Az.
24 Feb 5.7 05:34:44 10° S 05:43:17 46° ESE 05:50:09 10° NE visible
25 Feb 6.3 04:53:52 10° SSE 05:01:29 31° ESE 05:07:48 10° NE visible
26 Feb 6.8 04:13:45 10° SSE 04:19:46 20° ESE 04:25:00 10° ENE visible
26 Feb 4.6 06:10:25 10° SSW 06:19:22 87° WNW 06:26:26 10° NNE visible
27 Feb 7.2 03:35:18 10° ESE 03:38:11 12° ESE 03:40:53 10° E visible
27 Feb 5.0 05:28:33 10° SSW 05:37:26 66° ESE 05:44:29 10° NE visible
28 Feb 5.6 04:47:09 10° S 04:55:34 45° ESE 05:02:22 10° NE visible
01 Mar 6.2 04:06:18 10° SSE 04:13:46 30° ESE 04:20:00 10° NE visible
01 Mar 4.6 06:05:04 10° SW 06:13:38 63° NW 06:20:30 10° NNE visible
02 Mar 6.7 03:26:15 10° SSE 03:32:04 20° ESE 03:37:09 10° ENE visible
02 Mar 4.5 05:22:47 10° SSW 05:31:39 89° WNW 05:38:39 10° NNE visible
03 Mar 7.0 02:48:00 10° ESE 02:50:29 11° ESE 02:52:50 10° E visible
03 Mar 4.9 04:40:56 10° SSW 04:49:43 65° ESE 04:56:42 10° NE visible
04 Mar 5.5 04:00:50 14° S 04:07:51 44° ESE 04:14:35 10° NE visible
04 Mar 4.8 06:00:03 10° WSW 06:07:59 45° NW 06:14:30 10° NNE visible
05 Mar 6.0 03:21:27 18° SSE 03:26:04 30° ESE 03:32:12 10° NE visible
05 Mar 4.5 05:18:09 13° SW 05:25:54 64° NW 05:32:44 10° NNE visible
